[[{"header":{"parameterUnit":"m.s-1","parameterCategory":1,"la1":30.2991,"la2":30.254,"lo1":-89.0895,"lo2":-89.0444,"dy":0.0017,"dx":0.0017,"nx":28,"ny":28,"refTime":"2023-10-12T03:00:00:Z","depth":0,"parameterNumber":2,"parameterNumberName":"U-component_of_WINDS"},"data":[0,0,0,0,0,0,0,0,0,0,0,0,0,0,0,0,0,0,0,0,0,0,0,0,0,0,0,0,0,0,0,0,0,0,0,0,0,0,0,0,0,0,0,0,0,0,0,0,0,0,0,0,0,0,0,0,0,0,-3.0618,-3.0618,0,-3.0656,-3.0656,-3.0656,-3.0582,-3.0579,-3.0577,-3.0574,-3.0612,-3.0615,-3.0618,0,0,0,0,0,0,0,0,0,0,0,0,0,-3.048,-3.0483,-3.0618,-3.0618,-3.0619,-3.0655,-3.0656,-3.0656,-3.0582,-3.0579,-3.0576,-3.0573,-3.0611,-3.0615,-3.0619,0,0,0,0,0,0,0,0,0,0,0,0,0,-3.0531,-3.0484,-3.0618,-3.0586,-3.0584,-3.0655,-3.0656,-3.0657,-3.0583,-3.0579,-3.0575,-3.0572,-3.061,-3.0614,-3.0619,-3.0723,0,0,-3.0634,-3.0636,0,0,0,0,0,0,0,0,-3.0529,-3.0536,-3.059,-3.0588,-3.0586,-3.061,-3.0621,-3.0679,-3.0584,-3.0583,-3.0574,-3.057,-3.0614,-3.0619,-3.0634,-3.0725,-3.0727,-3.0635,-3.0638,-3.064,-3.0641,0,0,0,0,0,0,0,-3.0525,-3.0534,-3.0633,-3.0591,-3.0588,-3.057,-3.0573,-3.0632,-3.0619,-3.0583,-3.0577,-3.0583,-3.0612,-3.0629,-3.0634,-3.0727,-3.0635,-3.0639,-3.0642,-3.0644,-3.0905,-3.0909,0,0,0,0,0,0,-3.0526,-3.0532,-3.0632,-3.0634,-3.0548,-3.0575,-3.0579,-3.0606,-3.0618,-3.0616,-3.0586,-3.0579,-3.0622,-3.0628,-3.0635,-3.0757,-3.064,-3.0644,-3.0647,-3.0901,-3.0906,-3.091,0,0,0,0,0,0,-3.0523,-3.0535,-3.063,-3.0582,-3.0592,-3.0581,-3.0613,-3.0609,-3.0625,-3.062,-3.0618,-3.0606,-3.062,-3.0628,-3.0702,-3.0757,-3.0647,-3.0651,-3.0896,-3.0903,-3.0908,-3.1003,0,0,0,0,0,0,-3.0519,-3.0535,-3.0575,-3.0583,-3.0595,-3.0697,-3.0616,-3.0612,-3.0634,-3.0626,-3.0638,-3.0637,-3.0618,-3.0695,-3.0707,-3.0762,-3.0655,-3.0891,-3.0899,-3.0906,-3.0994,-3.1011,-3.1025,0,0,0,0,0,-3.0515,-3.06,-3.0577,-3.0589,-3.0645,-3.07,-3.0707,-3.0684,-3.0639,-3.0679,-3.0675,-3.0636,-3.075,-3.0703,-3.0716,-3.0774,-3.0888,-3.0897,-3.0906,-3.0988,-3.1008,-3.1025,0,0,0,0,0,0,-3.0598,-3.06,-3.0575,-3.0665,-3.0683,-3.0687,-3.0737,-3.0706,-3.0737,-3.0727,-3.0697,-3.07,-3.078,-3.0784,-3.0732,-3.0874,-3.0811,-3.0823,-3.0869,-3.0888,-3.0903,-3.09,-3.0659,0,0,0,0,0,-3.0626,-3.0672,-3.0671,-3.0751,-3.0761,-3.0748,-3.0771,-3.0752,-3.0769,-3.0776,-3.0778,-3.0796,-3.0835,-3.0862,-3.0898,-3.0995,-3.0996,-3.1041,-3.1056,-3.1069,-3.1079,-3.113,-3.115,-3.094,-3.094,-3.0939,0,0,-3.0686,-3.0693,-3.0724,-3.0768,-3.0779,-3.0827,-3.0755,-3.0808,-3.0842,-3.0784,-3.0853,-3.0856,-3.0874,-3.0959,-3.0997,-3.0965,-3.1138,-3.108,-3.109,-3.1094,-3.1141,-3.1161,-3.1179,-3.0946,-3.0945,-3.0944,0,0,-3.0819,-3.083,-3.0897,-3.091,-3.0928,-3.0919,-3.0935,-3.0944,-3.0944,-3.1013,-3.097,-3.1011,-3.108,-3.1094,-3.111,-3.1249,-3.1214,-3.1262,-3.1342,-3.1392,-3.1409,-3.1423,-3.1472,-3.149,-3.1272,-3.1272,-3.1273,0,-3.0891,-3.0961,-3.0935,-3.0991,-3.1012,-3.0961,-3.1029,-3.1043,-3.1072,-3.1087,-3.1051,-3.1136,-3.1145,-3.1233,-3.1267,-3.1282,-3.1299,-3.126,-3.1408,-3.1423,-3.1436,-3.1482,-3.1501,-3.1278,-3.1277,-3.1277,-3.1276,0,-3.1049,-3.1098,-3.115,-3.118,-3.1206,-3.1268,-3.125,-3.128,-3.1258,-3.1253,-3.1324,-3.1332,-3.1369,-3.1388,-3.1368,-3.1474,-3.1453,-3.1413,-3.1349,-3.1462,-3.1505,-3.1522,-3.1286,-3.1284,-3.1282,-3.1281,0,0,-3.1235,-3.1249,-3.1269,-3.1282,-3.1299,-3.1336,-3.1395,-3.1431,-3.1457,-3.1479,-3.1528,-3.1587,-3.155,-3.1569,-3.1549,-3.1593,-3.1702,-3.1548,-3.1548,-3.1576,-3.1819,-3.1848,-3.1869,-3.1679,-3.1682,-3.1685,-3.1817,0,-3.1366,-3.1468,-3.1447,-3.1547,-3.1592,-3.1544,-3.1596,-3.1611,-3.1608,-3.1645,-3.164,-3.1683,-3.1631,-3.1642,-3.1683,-3.168,-3.175,-3.167,-3.1723,-3.1725,-3.172,-3.1892,-3.1923,-3.2047,-3.1834,-3.1836,-3.1838,0,-3.1533,-3.1562,-3.1667,-3.1676,-3.1694,-3.1741,-3.1772,-3.1808,-3.1825,-3.1819,-3.184,-3.1812,-3.187,-3.1805,-3.1885,-3.1831,-3.1851,-3.1853,-3.1857,-3.1861,-3.1788,-3.1899,-3.2086,-3.2105,-3.1865,-3.1863,-3.1861,0,-3.1658,-3.1723,-3.1794,-3.1806,-3.1819,-3.1853,-3.186,-3.1873,-3.1896,-3.1923,-3.1938,-3.1972,-3.199,-3.2016,-3.1998,-3.1953,-3.208,-3.2014,-3.2076,-3.2077,-3.2105,-3.2103,-3.2297,-3.2119,-3.2119,-3.2119,-3.2118,0,-3.1807,-3.1873,-3.185,-3.1894,-3.1966,-3.194,-3.2012,-3.2013,-3.2025,-3.2068,-3.2029,-3.207,-3.2043,-3.2082,-3.2067,-3.2135,-3.2144,-3.214,-3.2135,-3.2143,-3.2144,-3.2156,-3.2146,-3.2123,-3.2122,-3.2121,-3.2121,0,-3.1958,-3.1946,-3.202,-3.2026,-3.2029,-3.2082,-3.2087,-3.2127,-3.2121,-3.2175,-3.2186,-3.2176,-3.2219,-3.2203,-3.2249,-3.224,-3.2326,-3.231,-3.232,-3.2316,-3.2379,-3.2373,-3.2587,-3.2613,-3.2419,-3.2421,-3.2423,0,-3.2054,-3.2103,-3.2115,-3.2141,-3.2151,-3.2193,-3.2217,-3.2193,-3.2219,-3.2242,-3.2279,-3.2319,-3.235,-3.2421,-3.2417,-3.2452,-3.2436,-3.2509,-3.2441,-3.2448,-3.2437,-3.2434,-3.2438,-3.2522,-3.2525,-3.2526,-3.2528,0,-3.2225,-3.2216,-3.2251,-3.2285,-3.2314,-3.234,-3.2361,-3.2385,-3.2362,-3.2393,-3.2437,-3.2461,-3.2508,-3.2548,-3.2579,-3.2585,-3.2553,-3.2549,-3.2565,-3.2574,-3.2577,-3.2576,-3.2357,-3.2544,-3.2543,-3.2542,-3.2541,-3.254,-3.235,-3.2392,-3.2407,-3.2448,-3.2462,-3.2483,-3.2521,-3.2519,-3.2556,-3.2592,-3.2576,-3.2627,-3.2642,-3.268,-3.2691,-3.273,-3.2702,-3.2725,-3.2731,-3.2737,-3.2745,-3.2572,-3.2736,-3.2735,-3.2735,-3.2734,-3.2734,0,-3.2519,-3.2526,-3.2564,-3.2596,-3.2628,-3.2595,-3.2617,-3.2646,-3.2691,-3.2708,-3.2739,-3.2789,-3.2828,-3.2827,-3.2863,-3.2894,-3.288,-3.2904,-3.2901,-3.2903,-3.2769,-3.2751,-3.2915,-3.2915,-3.2915,-3.2915,-3.2915,-3.2915,-3.261,-3.2679,-3.2672,-3.2747,-3.2753,-3.2803,-3.2819,-3.2838,-3.2851,-3.2909,-3.2941,-3.2941,-3.295,-3.2986,-3.302,-3.3019,-3.3033,-3.3063,-3.3056,-3.293,-3.2913,-3.2895,-3.2878,-3.3066,-3.3067,-3.3187,-3.3188,-3.3189]},{"header":{"parameterUnit":"m.s-1","parameterCategory":1,"la1":30.2991,"la2":30.254,"lo1":-89.0895,"lo2":-89.0444,"dy":0.0017,"dx":0.0017,"nx":28,"ny":28,"refTime":"2023-10-12T03:00:00:Z","depth":0,"parameterNumber":3,"parameterNumberName":"V-component_of_WINDS"},"data":[0,0,0,0,0,0,0,0,0,0,0,0,0,0,0,0,0,0,0,0,0,0,0,0,0,0,0,0,0,0,0,0,0,0,0,0,0,0,0,0,0,0,0,0,0,0,0,0,0,0,0,0,0,0,0,0,0,0,-3.4804,-3.4804,0,-3.4832,-3.4832,-3.4833,-3.479,-3.4789,-3.4787,-3.4786,-3.4813,-3.4815,-3.4817,0,0,0,0,0,0,0,0,0,0,0,0,0,-3.4711,-3.4713,-3.4804,-3.4804,-3.4805,-3.4832,-3.4832,-3.4833,-3.4791,-3.4789,-3.4787,-3.4785,-3.4812,-3.4815,-3.4817,0,0,0,0,0,0,0,0,0,0,0,0,0,-3.4746,-3.4713,-3.4804,-3.4787,-3.4786,-3.4832,-3.4832,-3.4833,-3.4791,-3.4789,-3.4787,-3.4784,-3.4811,-3.4815,-3.4818,-3.4881,0,0,-3.4827,-3.4829,0,0,0,0,0,0,0,0,-3.4744,-3.475,-3.4789,-3.4788,-3.4787,-3.4805,-3.4809,-3.4849,-3.4792,-3.4789,-3.4786,-3.4783,-3.4812,-3.4815,-3.4825,-3.4883,-3.4884,-3.4828,-3.4829,-3.4831,-3.4832,0,0,0,0,0,0,0,-3.4742,-3.4748,-3.4815,-3.479,-3.4788,-3.4777,-3.478,-3.4817,-3.4813,-3.4789,-3.4786,-3.479,-3.4811,-3.4822,-3.4825,-3.4884,-3.4827,-3.483,-3.4832,-3.4833,-3.4993,-3.4996,0,0,0,0,0,0,-3.4742,-3.4747,-3.4814,-3.4816,-3.476,-3.478,-3.4783,-3.4802,-3.4812,-3.4812,-3.4792,-3.4788,-3.4818,-3.4822,-3.4826,-3.49,-3.4831,-3.4834,-3.4835,-3.4991,-3.4994,-3.4996,0,0,0,0,0,0,-3.474,-3.4748,-3.4813,-3.478,-3.4788,-3.4784,-3.4805,-3.4803,-3.4815,-3.4814,-3.4813,-3.4804,-3.4816,-3.4822,-3.4868,-3.4901,-3.4835,-3.4838,-3.4988,-3.4992,-3.4995,-3.505,0,0,0,0,0,0,-3.4738,-3.4748,-3.4773,-3.4781,-3.479,-3.4855,-3.4807,-3.4806,-3.482,-3.4815,-3.4825,-3.4825,-3.4815,-3.4863,-3.4871,-3.4904,-3.484,-3.4985,-3.499,-3.4994,-3.5045,-3.5055,-3.5064,0,0,0,0,0,-3.4734,-3.4787,-3.4774,-3.4783,-3.4821,-3.4857,-3.4862,-3.485,-3.4823,-3.4848,-3.4847,-3.4825,-3.4896,-3.4868,-3.4876,-3.4911,-3.4983,-3.4989,-3.4994,-3.5041,-3.5053,-3.5063,0,0,0,0,0,0,-3.4782,-3.4788,-3.4774,-3.4831,-3.4844,-3.485,-3.488,-3.4863,-3.4883,-3.4878,-3.4861,-3.4864,-3.4913,-3.4916,-3.4885,-3.4972,-3.4935,-3.4942,-3.4968,-3.498,-3.4989,-3.4987,-3.4843,0,0,0,0,0,-3.48,-3.4829,-3.4832,-3.4882,-3.489,-3.4884,-3.4899,-3.4889,-3.4901,-3.4906,-3.4909,-3.4921,-3.4946,-3.4963,-3.4986,-3.5046,-3.5046,-3.5073,-3.5082,-3.509,-3.5096,-3.5126,-3.5138,-3.5014,-3.5014,-3.5014,0,0,-3.4836,-3.4842,-3.4862,-3.4892,-3.4901,-3.4931,-3.4889,-3.4923,-3.4944,-3.4911,-3.4955,-3.4957,-3.4969,-3.5022,-3.5045,-3.5027,-3.5131,-3.5097,-3.5103,-3.5105,-3.5133,-3.5145,-3.5155,-3.5018,-3.5017,-3.5016,0,0,-3.4916,-3.4925,-3.4967,-3.4977,-3.499,-3.4986,-3.4996,-3.5005,-3.5005,-3.5048,-3.5024,-3.5049,-3.5093,-3.5102,-3.5113,-3.5196,-3.5175,-3.5204,-3.5251,-3.5281,-3.5291,-3.5299,-3.5328,-3.5339,-3.521,-3.521,-3.521,0,-3.4959,-3.5004,-3.4991,-3.5026,-3.504,-3.5011,-3.5053,-3.5063,-3.5083,-3.5092,-3.5071,-3.5125,-3.5131,-3.5185,-3.5205,-3.5215,-3.5225,-3.5202,-3.529,-3.5299,-3.5307,-3.5334,-3.5345,-3.5213,-3.5213,-3.5213,-3.5212,0,-3.5056,-3.5087,-3.5119,-3.514,-3.5157,-3.5196,-3.5187,-3.5206,-3.5193,-3.5191,-3.5235,-3.5241,-3.5265,-3.5277,-3.5265,-3.5329,-3.5316,-3.5293,-3.5255,-3.5322,-3.5347,-3.5358,-3.5218,-3.5217,-3.5216,-3.5215,0,0,-3.5168,-3.518,-3.5192,-3.5201,-3.5213,-3.5237,-3.5273,-3.5296,-3.5312,-3.5327,-3.5356,-3.5394,-3.5372,-3.5384,-3.5373,-3.5399,-3.5463,-3.5372,-3.5372,-3.5388,-3.5532,-3.5549,-3.5562,-3.545,-3.5452,-3.5453,-3.5531,0,-3.5248,-3.5312,-3.53,-3.5362,-3.539,-3.5363,-3.5394,-3.5405,-3.5403,-3.5426,-3.5424,-3.545,-3.542,-3.5427,-3.5452,-3.545,-3.5492,-3.5444,-3.5476,-3.5477,-3.5474,-3.5575,-3.5593,-3.5666,-3.5541,-3.5542,-3.5544,0,-3.535,-3.5369,-3.5433,-3.544,-3.5451,-3.548,-3.55,-3.5522,-3.5533,-3.553,-3.5543,-3.5527,-3.5562,-3.5524,-3.5571,-3.5539,-3.5551,-3.5552,-3.5555,-3.5557,-3.5514,-3.5579,-3.5689,-3.57,-3.5559,-3.5558,-3.5557,0,-3.5425,-3.5466,-3.5509,-3.5518,-3.5527,-3.5547,-3.5552,-3.5561,-3.5575,-3.5592,-3.5601,-3.5621,-3.5632,-3.5648,-3.5638,-3.5611,-3.5687,-3.5648,-3.5684,-3.5685,-3.5701,-3.57,-3.5814,-3.571,-3.571,-3.571,-3.5709,0,-3.5515,-3.5555,-3.5543,-3.557,-3.5614,-3.5599,-3.5643,-3.5644,-3.5652,-3.5677,-3.5655,-3.5679,-3.5664,-3.5687,-3.5679,-3.5719,-3.5724,-3.5722,-3.5719,-3.5724,-3.5724,-3.5731,-3.5726,-3.5713,-3.5712,-3.5711,-3.5711,0,-3.5606,-3.5599,-3.5645,-3.565,-3.5652,-3.5684,-3.5687,-3.5712,-3.5708,-3.5741,-3.5748,-3.5742,-3.5767,-3.5758,-3.5786,-3.578,-3.5831,-3.5822,-3.5828,-3.5825,-3.5862,-3.5858,-3.5984,-3.6,-3.5886,-3.5887,-3.5888,0,-3.5664,-3.5694,-3.5702,-3.5718,-3.5724,-3.575,-3.5764,-3.5751,-3.5766,-3.578,-3.5803,-3.5826,-3.5845,-3.5887,-3.5885,-3.5905,-3.5896,-3.5939,-3.5899,-3.5902,-3.5896,-3.5894,-3.5896,-3.5947,-3.5948,-3.5949,-3.595,0,-3.5767,-3.5762,-3.5784,-3.5804,-3.5822,-3.5837,-3.5851,-3.5865,-3.5851,-3.587,-3.5896,-3.591,-3.5938,-3.5962,-3.598,-3.5984,-3.5965,-3.5962,-3.5972,-3.5977,-3.5978,-3.5977,-3.5849,-3.596,-3.5959,-3.5958,-3.5957,-3.5957,-3.5843,-3.5868,-3.5877,-3.5902,-3.591,-3.5923,-3.5946,-3.5945,-3.5966,-3.5988,-3.5978,-3.6008,-3.6017,-3.6039,-3.6046,-3.6068,-3.6052,-3.6066,-3.6069,-3.6072,-3.6077,-3.5975,-3.6072,-3.6071,-3.6071,-3.6071,-3.6071,0,-3.5944,-3.5948,-3.5971,-3.599,-3.6009,-3.599,-3.6003,-3.602,-3.6047,-3.6057,-3.6075,-3.6104,-3.6127,-3.6126,-3.6146,-3.6164,-3.6156,-3.617,-3.6168,-3.6169,-3.6091,-3.608,-3.6177,-3.6177,-3.6177,-3.6176,-3.6176,-3.6176,-3.5999,-3.604,-3.6036,-3.6081,-3.6084,-3.6114,-3.6123,-3.6134,-3.6142,-3.6175,-3.6194,-3.6193,-3.6199,-3.6219,-3.6238,-3.6237,-3.6246,-3.6263,-3.6259,-3.6186,-3.6175,-3.6165,-3.6155,-3.6265,-3.6265,-3.6335,-3.6336,-3.6337]}]]